02/08/2009,00:00:14,   0.0,  2.4,  269,+12.5,  85.7,    0.4,  +15.8,  +16.7,  +13.3,+1000.08,48
02/08/2009,00:00:34,   0.0,  1.4,  274,+12.5,  85.7,    0.4,  +15.8,  +16.8,  +13.2,+1000.08,45
02/08/2009,00:00:54,   0.0,  2.3,  249,+12.5,  85.7,    0.3,  +15.7,  +16.8,  +13.2,+1000.09,48
02/08/2009,00:01:14,   0.0,  2.4,  294,+12.5,  85.7,    0.3,  +15.7,  +16.8,  +13.2,+1000.06,43
02/08/2009,00:01:34,   0.0,  2.2,  271,+12.4,  85.7,    0.4,  +15.7,  +16.8,  +13.3,+1000.07,40
02/08/2009,00:01:54,   0.0,  1.8,  295,+12.4,  85.7,    0.4,  +15.8,  +16.7,  +13.3,+1000.06,4C
02/08/2009,00:02:14,   0.0,  3.0,  275,+12.5,  85.7,    0.5,  +15.8,  +16.8,  +13.2,+1000.06,43
02/08/2009,00:02:34,   0.0,  2.7,  241,+12.4,  85.7,    0.4,  +15.8,  +16.8,  +13.2,+1000.07,43
02/08/2009,00:02:54,   0.0,  1.7,  313,+12.5,  85.7,    0.5,  +15.7,  +16.8,  +13.2,+1000.04,42
02/08/2009,00:03:14,   0.0,  2.4,  246,+12.4,  85.8,    0.5,  +15.8,  +16.8,  +13.3,+1000.03,43
02/08/2009,00:03:34,   0.0,  2.2,  237,+12.4,  85.8,    0.5,  +15.9,  +16.7,  +13.3,+1000.05,45
02/08/2009,00:03:54,   0.0,  3.2,  252,+12.4,  85.8,    0.4,  +15.9,  +16.7,  +13.3,+1000.04,43
02/08/2009,00:04:14,   0.0,  2.2,  232,+12.4,  85.9,    0.3,  +15.8,  +16.8,  +13.3,+1000.01,3A
02/08/2009,00:04:34,   0.0,  2.9,  245,+12.4,  85.9,    0.5,  +15.7,  +16.9,  +13.3,+1000.03,4B
02/08/2009,00:04:54,   0.0,  2.8,  245,+12.4,  85.9,    0.5,  +15.8,  +16.8,  +13.2,+1000.01,49
02/08/2009,00:05:14,   0.0,  3.0,  271,+12.4,  85.9,    0.5,  +15.8,  +16.8,  +13.2, +999.98,58
02/08/2009,00:05:34,   0.0,  4.8,  269,+12.4,  86.0,    0.4,  +15.7,  +16.8,  +13.2,+1000.01,46
02/08/2009,00:05:54,   0.0,  3.1,  258,+12.4,  85.9,    0.5,  +15.7,  +16.8,  +13.2,+1000.00,46
02/08/2009,00:06:14,   0.0,  2.7,  255,+12.4,  86.0,    0.4,  +15.8,  +16.7,  +13.2, +999.99,58
02/08/2009,00:06:34,   0.0,  2.2,  257,+12.4,  86.0,    0.3,  +15.9,  +16.7,  +13.1,+1000.00,3A
02/08/2009,00:06:54,   0.0,  2.8,  253,+12.4,  86.0,    0.4,  +15.9,  +16.7,  +13.1, +999.97,59
02/08/2009,00:07:14,   0.0,  3.2,  254,+12.3,  86.0,    0.5,  +15.8,  +16.8,  +13.1, +999.98,53
02/08/2009,00:07:34,   0.0,  2.3,  241,+12.3,  86.1,    0.5,  +15.9,  +16.7,  +13.1, +999.97,51
02/08/2009,00:07:54,   0.0,  2.9,  256,+12.4,  86.1,    0.4,  +15.9,  +16.7,  +13.0, +999.99,60
02/08/2009,00:08:14,   0.0,  3.6,  286,+12.3,  86.1,    0.4,  +15.8,  +16.7,  +13.1, +999.98,5C
02/08/2009,00:08:34,   0.0,  2.7,  257,+12.3,  86.1,    0.3,  +15.8,  +16.7,  +13.1, +999.95,58
02/08/2009,00:08:54,   0.0,  3.2,  240,+12.3,  86.2,    0.3,  +15.8,  +16.7,  +13.0, +999.92,4B
02/08/2009,00:09:14,   0.0,  3.1,  279,+12.3,  86.2,    0.4,  +15.8,  +16.7,  +13.0, +999.97,59
02/08/2009,00:09:34,   0.0,  3.4,  266,+12.3,  86.2,    0.4,  +15.9,  +16.7,  +13.0, +999.95,59
02/08/2009,00:09:54,   0.0,  2.9,  279,+12.3,  86.3,    0.4,  +15.8,  +16.8,  +13.0, +999.97,66
02/08/2009,00:10:14,   0.0,  4.2,  260,+12.3,  86.3,    0.4,  +15.8,  +16.8,  +13.0, +999.98,4C
02/08/2009,00:10:34,   0.0,  1.9,  252,+12.3,  86.3,    0.4,  +15.8,  +16.8,  +13.0, +999.98,53
02/08/2009,00:10:54,   0.0,  2.8,  311,+12.3,  86.3,    0.3,  +15.8,  +16.8,  +12.9,+1000.00,3D
02/08/2009,00:11:14,   0.0,  3.1,  265,+12.3,  86.3,    0.4,  +15.7,  +16.8,  +12.9, +999.98,57
02/08/2009,00:11:34,   0.0,  4.4,  240,+12.3,  86.3,    0.3,  +15.8,  +16.7,  +13.0,+1000.02,34
02/08/2009,00:11:54,   0.0,  3.1,  259,+12.3,  86.3,    0.4,  +15.8,  +16.7,  +13.0, +999.97,55
02/08/2009,00:12:14,   0.0,  2.7,  308,+12.2,  86.4,    0.4,  +15.8,  +16.8,  +12.9, +999.99,5D
02/08/2009,00:12:34,   0.0,  2.7,  269,+12.3,  86.4,    0.4,  +15.7,  +16.8,  +12.9, +999.95,61
02/08/2009,00:12:54,   0.0,  2.4,  231,+12.2,  86.5,    0.4,  +15.9,  +16.7,  +13.0, +999.99,52
02/08/2009,00:13:14,   0.0,  5.1,  271,+12.2,  86.4,    0.4,  +15.8,  +16.7,  +13.0, +999.98,50
02/08/2009,00:13:34,   0.0,  2.3,  246,+12.2,  86.5,    0.5,  +15.9,  +16.7,  +12.9,+1000.00,43
02/08/2009,00:13:54,   0.0,  2.8,  283,+12.2,  86.5,    0.5,  +15.7,  +16.8,  +12.9,+1000.00,4A
02/08/2009,00:14:14,   0.0,  3.1,  257,+12.2,  86.5,    0.5,  +15.7,  +16.9,  +12.9,+1000.03,46
02/08/2009,00:14:34,   0.0,  3.1,  252,+12.2,  86.6,    0.4,  +15.9,  +16.7,  +12.9,+1000.02,42
02/08/2009,00:14:54,   0.0,  3.5,  283,+12.2,  86.6,    0.3,  +15.9,  +16.7,  +12.9,+1000.02,4B
02/08/2009,00:15:14,   0.0,  3.4,  243,+12.2,  86.6,    0.3,  +15.8,  +16.8,  +12.9,+1000.06,47
02/08/2009,00:15:34,   0.0,  3.2,  247,+12.2,  86.6,    0.4,  +15.8,  +16.7,  +12.9,+1000.04,49
02/08/2009,00:15:54,   0.0,  2.0,  262,+12.2,  86.6,    0.3,  +15.8,  +16.7,  +12.9,+1000.07,47
02/08/2009,00:16:14,   0.0,  1.6,  229,+12.2,  86.6,    0.3,  +15.7,  +16.8,  +12.8,+1000.06,4A
02/08/2009,00:16:34,   0.0,  3.0,  252,+12.2,  86.7,    0.3,  +15.9,  +16.7,  +12.9,+1000.08,49
02/08/2009,00:16:54,   0.0,  2.3,  264,+12.2,  86.7,    0.4,  +15.8,  +16.7,  +12.8,+1000.12,4A
02/08/2009,00:17:14,   0.0,  2.6,  254,+12.2,  86.7,    0.3,  +15.8,  +16.7,  +12.8,+1000.07,4C
02/08/2009,00:17:34,   0.0,  2.5,  285,+12.1,  86.7,    0.3,  +15.8,  +16.8,  +12.7,+1000.07,50
02/08/2009,00:17:54,   0.0,  3.4,  243,+12.2,  86.8,    0.4,  +15.8,  +16.7,  +12.7,+1000.08,4F
02/08/2009,00:18:14,   0.0,  2.3,  235,+12.1,  86.8,    0.4,  +15.8,  +16.8,  +12.7,+1000.09,4C
02/08/2009,00:18:34,   0.0,  3.0,  259,+12.1,  86.8,    0.4,  +15.8,  +16.8,  +12.7,+1000.09,52
02/08/2009,00:18:54,   0.0,  2.3,  259,+12.2,  86.9,    0.4,  +15.8,  +16.8,  +12.7,+1000.08,57
02/08/2009,00:19:14,   0.0,  3.1,  242,+12.1,  86.9,    0.4,  +15.8,  +16.7,  +12.7,+1000.13,45
02/08/2009,00:19:34,   0.0,  1.8,  258,+12.1,  86.9,    0.4,  +15.8,  +16.7,  +12.7,+1000.11,51
02/08/2009,00:19:54,   0.0,  2.3,  251,+12.1,  86.9,    0.3,  +15.7,  +16.8,  +12.7,+1000.12,48
02/08/2009,00:20:14,   0.0,  2.8,  202,+12.1,  86.9,    0.5,  +15.8,  +16.8,  +12.7,+1000.14,42
02/08/2009,00:20:34,   0.0,  2.3,  244,+12.1,  87.0,    0.4,  +15.8,  +16.8,  +12.7,+1000.11,39
02/08/2009,00:20:54,   0.0,  3.4,  240,+12.1,  87.0,    0.5,  +15.8,  +16.8,  +12.7,+1000.11,3A
02/08/2009,00:21:14,   0.0,  3.6,  244,+12.1,  87.1,    0.6,  +15.8,  +16.8,  +12.7,+1000.14,42
02/08/2009,00:21:34,   0.0,  2.7,  246,+12.1,  87.1,    0.4,  +15.8,  +16.8,  +12.7,+1000.15,45
02/08/2009,00:21:54,   0.0,  1.9,  238,+12.1,  87.1,    0.4,  +15.8,  +16.8,  +12.7,+1000.15,49
02/08/2009,00:22:14,   0.0,  1.9,  243,+12.1,  87.1,    0.4,  +15.8,  +16.8,  +12.7,+1000.12,3F
02/08/2009,00:22:34,   0.0,  3.5,  266,+12.1,  87.1,    0.5,  +15.8,  +16.8,  +12.7,+1000.16,49
02/08/2009,00:22:54,   0.0,  1.7,  283,+12.1,  87.1,    0.5,  +15.9,  +16.7,  +12.7,+1000.14,48
02/08/2009,00:23:14,   0.0,  3.0,  235,+12.1,  87.2,    0.5,  +15.7,  +16.8,  +12.7,+1000.16,3F
02/08/2009,00:23:34,   0.0,  4.5,  239,+12.1,  87.2,    0.5,  +15.9,  +16.7,  +12.7,+1000.13,49
02/08/2009,00:23:54,   0.0,  3.2,  227,+12.1,  87.1,    0.4,  +15.8,  +16.8,  +12.7,+1000.16,45
02/08/2009,00:24:14,   0.0,  2.5,  251,+12.1,  87.2,    0.5,  +15.9,  +16.8,  +12.7,+1000.14,42
02/08/2009,00:24:34,   0.0,  3.0,  244,+12.1,  87.1,    0.4,  +15.9,  +16.7,  +12.7,+1000.16,41
02/08/2009,00:24:54,   0.0,  2.7,  269,+12.1,  87.1,    0.4,  +15.7,  +16.8,  +12.7,+1000.12,4B
02/08/2009,00:25:14,   0.0,  2.5,  241,+12.1,  87.2,    0.4,  +15.8,  +16.7,  +12.7,+1000.15,40
02/08/2009,00:25:34,   0.0,  2.2,  250,+12.0,  87.2,    0.5,  +15.7,  +16.8,  +12.7,+1000.13,3D
02/08/2009,00:25:54,   0.0,  1.5,  269,+12.1,  87.2,    0.5,  +15.7,  +16.8,  +12.7,+1000.16,4F
02/08/2009,00:26:14,   0.0,  1.2,  229,+12.1,  87.2,    0.5,  +15.8,  +16.7,  +12.8,+1000.16,46
02/08/2009,00:26:34,   0.0,  4.1,  236,+12.1,  87.2,    0.4,  +15.7,  +16.8,  +12.7,+1000.16,46
02/08/2009,00:26:54,   0.0,  2.4,  269,+12.1,  87.2,    0.4,  +15.7,  +16.8,  +12.7,+1000.16,4F
02/08/2009,00:27:14,   0.0,  3.5,  227,+12.1,  87.3,    0.4,  +15.7,  +16.8,  +12.7,+1000.14,47
02/08/2009,00:27:34,   0.0,  3.7,  254,+12.1,  87.2,    0.5,  +15.9,  +16.7,  +12.8,+1000.16,4F
02/08/2009,00:27:54,   0.0,  3.5,  246,+12.1,  87.3,    0.4,  +15.9,  +16.7,  +12.8,+1000.16,50
02/08/2009,00:28:14,   0.0,  2.8,  243,+12.1,  87.3,    0.6,  +15.8,  +16.7,  +12.8,+1000.19,50
02/08/2009,00:28:34,   0.0,  3.1,  251,+12.0,  87.3,    0.5,  +15.8,  +16.7,  +12.8,+1000.19,49
02/08/2009,00:28:54,   0.0,  3.3,  255,+12.1,  87.3,    0.4,  +15.8,  +16.7,  +12.8,+1000.20,49
02/08/2009,00:29:14,   0.0,  3.0,  232,+12.1,  87.3,    0.5,  +15.7,  +16.8,  +12.7,+1000.16,43
02/08/2009,00:29:34,   0.0,  3.0,  243,+12.1,  87.3,    0.4,  +15.9,  +16.7,  +12.8,+1000.16,48
02/08/2009,00:29:54,   0.0,  4.1,  222,+12.1,  87.3,    0.4,  +15.8,  +16.8,  +12.8,+1000.21,45
02/08/2009,00:30:14,   0.0,  2.7,  237,+12.0,  87.3,    0.5,  +15.8,  +16.8,  +12.8,+1000.23,45
02/08/2009,00:30:34,   0.0,  3.1,  263,+12.1,  87.3,    0.6,  +15.8,  +16.8,  +12.8,+1000.20,40
02/08/2009,00:30:54,   0.0,  4.4,  244,+12.0,  87.3,    0.4,  +15.9,  +16.7,  +12.8,+1000.23,45
02/08/2009,00:31:14,   0.0,  4.3,  211,+12.1,  87.3,    0.4,  +15.8,  +16.8,  +12.7,+1000.23,3B
02/08/2009,00:31:34,   0.0,  2.3,  222,+12.0,  87.3,    0.4,  +15.8,  +16.7,  +12.7,+1000.23,3B
02/08/2009,00:31:54,   0.0,  2.9,  241,+12.0,  87.3,    0.4,  +15.7,  +16.8,  +12.6,+1000.23,43
02/08/2009,00:32:14,   0.0,  2.6,  233,+12.0,  87.3,    0.4,  +15.7,  +16.8,  +12.7,+1000.24,40
02/08/2009,00:32:34,   0.0,  3.2,  250,+12.1,  87.3,    0.4,  +15.8,  +16.7,  +12.7,+1000.25,40
02/08/2009,00:32:54,   0.0,  3.4,  228,+12.0,  87.3,    0.4,  +15.8,  +16.8,  +12.7,+1000.25,49
02/08/2009,00:33:14,   0.0,  3.9,  244,+12.0,  87.4,    0.4,  +15.8,  +16.8,  +12.6,+1000.27,4B
02/08/2009,00:33:34,   0.0,  2.7,  246,+12.0,  87.4,    0.4,  +15.8,  +16.8,  +12.6,+1000.28,4D
02/08/2009,00:33:54,   0.0,  2.8,  231,+12.0,  87.4,    0.4,  +15.9,  +16.7,  +12.7,+1000.27,4A
02/08/2009,00:34:14,   0.0,  3.0,  257,+12.0,  87.4,    0.4,  +15.8,  +16.8,  +12.7,+1000.26,47
02/08/2009,00:34:34,   0.0,  3.8,  231,+12.0,  87.3,    0.3,  +15.8,  +16.7,  +12.7,+1000.31,42
02/08/2009,00:34:54,   0.0,  2.8,  253,+12.0,  87.3,    0.4,  +15.7,  +16.8,  +12.6,+1000.29,4E
02/08/2009,00:35:14,   0.0,  2.0,  225,+12.0,  87.4,    0.5,  +15.8,  +16.8,  +12.6,+1000.29,45
02/08/2009,00:35:34,   0.0,  1.8,  240,+11.9,  87.4,    0.5,  +15.8,  +16.8,  +12.6,+1000.30,4B
02/08/2009,00:35:54,   0.0,  3.0,  206,+11.9,  87.4,    0.4,  +15.8,  +16.8,  +12.7,+1000.30,49
02/08/2009,00:36:14,   0.0,  0.2,  244,+12.0,  87.4,    0.5,  +15.8,  +16.7,  +12.7,+1000.28,46
02/08/2009,00:36:34,   0.0,  2.0,  218,+12.0,  87.3,    0.5,  +15.8,  +16.7,  +12.7,+1000.32,43
02/08/2009,00:36:54,   0.0,  0.9,  228,+12.0,  87.4,    0.4,  +15.8,  +16.7,  +12.7,+1000.31,4C
02/08/2009,00:37:14,   0.0,  1.9,  245,+12.0,  87.3,    0.3,  +15.8,  +16.8,  +12.7,+1000.32,49
02/08/2009,00:37:34,   0.0,  1.3,  220,+11.9,  87.4,    0.4,  +15.7,  +16.8,  +12.7,+1000.32,47
02/08/2009,00:37:54,   0.0,  2.8,  244,+11.9,  87.4,    0.3,  +15.7,  +16.8,  +12.7,+1000.31,53
02/08/2009,00:38:14,   0.0,  3.6,  251,+11.9,  87.4,    0.4,  +15.8,  +16.8,  +12.7,+1000.32,50
02/08/2009,00:38:34,   0.0,  3.0,  226,+11.9,  87.4,    0.4,  +15.8,  +16.8,  +12.7,+1000.35,51
02/08/2009,00:38:54,   0.0,  3.4,  224,+11.9,  87.5,    0.4,  +15.8,  +16.8,  +12.6,+1000.34,54
02/08/2009,00:39:14,   0.0,  2.4,  219,+11.9,  87.6,    0.4,  +15.9,  +16.7,  +12.6,+1000.35,56
02/08/2009,00:39:34,   0.0,  2.2,  245,+11.9,  87.6,    0.4,  +15.8,  +16.8,  +12.6,+1000.36,56
02/08/2009,00:39:54,   0.0,  1.6,  228,+11.9,  87.7,    0.5,  +15.8,  +16.8,  +12.6,+1000.37,5F
02/08/2009,00:40:14,   0.0,  2.5,  233,+11.9,  87.6,    0.4,  +15.7,  +16.8,  +12.6,+1000.36,4B
02/08/2009,00:40:34,   0.0,  2.6,  245,+11.9,  87.6,    0.3,  +15.7,  +16.8,  +12.6,+1000.39,53
02/08/2009,00:40:54,   0.0,  1.9,  219,+11.9,  87.7,    0.2,  +15.8,  +16.7,  +12.6,+1000.38,57
02/08/2009,00:41:14,   0.0,  2.6,  236,+11.9,  87.7,    0.3,  +15.9,  +16.7,  +12.6,+1000.39,54
02/08/2009,00:41:34,   0.0,  3.6,  226,+11.9,  87.8,    0.3,  +15.9,  +16.7,  +12.6,+1000.39,57
02/08/2009,00:41:54,   0.0,  1.6,  204,+11.9,  87.8,    0.3,  +15.7,  +16.8,  +12.6,+1000.40,4A
02/08/2009,00:42:14,   0.0,  1.9,  220,+11.8,  87.9,    0.5,  +15.8,  +16.7,  +12.5,+1000.41,4A
02/08/2009,00:42:34,   0.0,  1.7,  255,+11.8,  87.8,    0.4,  +15.7,  +16.8,  +12.6,+1000.38,57
02/08/2009,00:42:54,   0.0,  2.4,  209,+11.8,  87.8,    0.4,  +15.7,  +16.7,  +12.6,+1000.39,56
02/08/2009,00:43:14,   0.0,  1.9,  216,+11.8,  87.8,    0.2,  +15.8,  +16.7,  +12.6,+1000.40,4C
02/08/2009,00:43:34,   0.0,  2.1,  202,+11.8,  87.8,    0.5,  +15.7,  +16.8,  +12.6,+1000.42,47
02/08/2009,00:43:54,   0.0,  1.8,  228,+11.8,  87.8,    0.4,  +15.7,  +16.8,  +12.5,+1000.40,53
02/08/2009,00:44:14,   0.0,  2.5,  238,+11.8,  87.8,    0.6,  +15.6,  +16.8,  +12.6,+1000.43,54
02/08/2009,00:44:34,   0.0,  2.4,  237,+11.8,  87.7,    0.4,  +15.9,  +16.7,  +12.6,+1000.39,58
02/08/2009,00:44:54,   0.0,  2.0,  240,+11.8,  87.8,    0.3,  +15.8,  +16.7,  +12.6,+1000.41,48
02/08/2009,00:45:14,   0.0,  0.5,  204,+11.8,  87.8,    0.4,  +15.9,  +16.7,  +12.6,+1000.39,51
02/08/2009,00:45:34,   0.0,  0.5,  285,+11.8,  87.9,    0.4,  +15.9,  +16.7,  +12.6,+1000.41,56
02/08/2009,00:45:54,   0.0,  1.9,  234,+11.8,  87.8,    0.4,  +15.8,  +16.7,  +12.6,+1000.41,55
02/08/2009,00:46:14,   0.0,  2.2,  242,+11.7,  87.8,    0.5,  +15.8,  +16.7,  +12.6,+1000.40,4A
02/08/2009,00:46:34,   0.0,  1.4,  242,+11.7,  87.7,    0.4,  +15.8,  +16.7,  +12.6,+1000.43,4E
02/08/2009,00:46:54,   0.0,  2.1,  228,+11.7,  87.8,    0.5,  +15.8,  +16.8,  +12.6,+1000.45,57
02/08/2009,00:47:14,   0.0,  2.1,  218,+11.7,  87.9,    0.4,  +15.9,  +16.7,  +12.6,+1000.41,4F
02/08/2009,00:47:34,   0.0,  1.8,  212,+11.7,  88.0,    0.4,  +15.8,  +16.7,  +12.5,+1000.42,48
02/08/2009,00:47:54,   0.0,  0.0,  232,+11.7,  88.0,    0.5,  +15.8,  +16.7,  +12.5,+1000.42,44
02/08/2009,00:48:14,   0.0,  0.0,  205,+11.7,  88.0,    0.5,  +15.8,  +16.8,  +12.5,+1000.41,41
02/08/2009,00:48:34,   0.0,  1.1,  225,+11.7,  88.1,    0.4,  +15.9,  +16.7,  +12.5,+1000.42,48
02/08/2009,00:48:54,   0.0,  1.7,  256,+11.7,  88.0,    0.4,  +15.8,  +16.8,  +12.5,+1000.43,54
02/08/2009,00:49:14,   0.0,  1.8,  213,+11.7,  88.1,    0.5,  +15.8,  +16.7,  +12.5,+1000.44,4D
02/08/2009,00:49:34,   0.0,  2.7,  235,+11.7,  88.1,    0.5,  +15.8,  +16.7,  +12.5,+1000.46,55
02/08/2009,00:49:54,   0.0,  4.6,  238,+11.7,  88.2,    0.4,  +15.8,  +16.8,  +12.5,+1000.46,5C
02/08/2009,00:50:14,   0.0,  2.9,  217,+11.7,  88.4,    0.4,  +15.8,  +16.8,  +12.4,+1000.45,4E
02/08/2009,00:50:34,   0.0,  2.1,  226,+11.6,  88.4,    0.4,  +15.9,  +16.7,  +12.5,+1000.46,49
02/08/2009,00:50:54,   0.0,  2.2,  230,+11.6,  88.5,    0.5,  +15.8,  +16.7,  +12.4,+1000.44,45
02/08/2009,00:51:14,   0.0,  2.1,  205,+11.6,  88.5,    0.4,  +15.8,  +16.8,  +12.4,+1000.45,44
02/08/2009,00:51:34,   0.0,  1.3,  216,+11.6,  88.6,    0.4,  +15.8,  +16.7,  +12.4,+1000.47,4B
02/08/2009,00:51:54,   0.0,  2.1,  212,+11.6,  88.5,    0.4,  +15.8,  +16.7,  +12.4,+1000.45,45
02/08/2009,00:52:14,   0.0,  2.3,  189,+11.6,  88.5,    0.5,  +15.8,  +16.7,  +12.5,+1000.46,54
02/08/2009,00:52:34,   0.0,  0.0,  193,+11.6,  88.6,    0.5,  +15.7,  +16.8,  +12.4,+1000.47,4D
02/08/2009,00:52:54,   0.0,  1.0,  224,+11.6,  88.6,    0.5,  +15.8,  +16.7,  +12.5,+1000.48,4D
02/08/2009,00:53:14,   0.0,  1.7,  229,+11.6,  88.7,    0.4,  +15.9,  +16.7,  +12.5,+1000.46,55
02/08/2009,00:53:34,   0.0,  1.9,  232,+11.6,  88.6,    0.4,  +15.9,  +16.7,  +12.5,+1000.48,54
02/08/2009,00:53:54,   0.0,  2.2,  195,+11.6,  88.6,    0.5,  +15.8,  +16.7,  +12.5,+1000.48,58
02/08/2009,00:54:14,   0.0,  0.3,  226,+11.6,  88.5,    0.4,  +15.8,  +16.7,  +12.5,+1000.47,4C
02/08/2009,00:54:34,   0.0,  1.9,  238,+11.6,  88.6,    0.4,  +15.8,  +16.8,  +12.4,+1000.48,5A
02/08/2009,00:54:54,   0.0,  1.7,  244,+11.6,  88.6,    0.4,  +15.8,  +16.7,  +12.4,+1000.50,4F
02/08/2009,00:55:14,   0.0,  1.3,  239,+11.5,  88.6,    0.3,  +15.8,  +16.7,  +12.5,+1000.52,4D
02/08/2009,00:55:34,   0.0,  2.1,  214,+11.6,  88.5,    0.4,  +15.9,  +16.7,  +12.5,+1000.48,4E
02/08/2009,00:55:54,   0.0,  2.0,  212,+11.6,  88.6,    0.3,  +15.9,  +16.7,  +12.5,+1000.50,46
02/08/2009,00:56:14,   0.0,  1.5,  224,+11.5,  88.7,    0.5,  +15.7,  +16.8,  +12.5,+1000.52,4D
02/08/2009,00:56:34,   0.0,  2.7,  221,+11.5,  88.7,    0.5,  +15.8,  +16.8,  +12.5,+1000.49,56
02/08/2009,00:56:54,   0.0,  2.3,  197,+11.5,  88.7,    0.4,  +15.9,  +16.7,  +12.5,+1000.48,5E
02/08/2009,00:57:14,   0.0,  1.9,  226,+11.5,  88.6,    0.4,  +15.8,  +16.7,  +12.5,+1000.49,58
02/08/2009,00:57:34,   0.0,  3.0,  230,+11.5,  88.8,    0.5,  +15.7,  +16.8,  +12.5,+1000.48,50
02/08/2009,00:57:54,   0.0,  3.0,  252,+11.5,  88.8,    0.5,  +15.7,  +16.9,  +12.4,+1000.48,56
02/08/2009,00:58:14,   0.0,  2.4,  249,+11.5,  88.7,    0.5,  +15.8,  +16.7,  +12.4,+1000.48,5A
02/08/2009,00:58:34,   0.0,  0.0,  222,+11.5,  88.9,    0.4,  +15.9,  +16.7,  +12.4,+1000.48,4F
02/08/2009,00:58:54,   0.0,  1.2,  191,+11.5,  88.9,    0.4,  +15.7,  +16.8,  +12.4,+1000.49,59
02/08/2009,00:59:14,   0.0,  1.5,  300,+11.5,  88.8,    0.5,  +15.8,  +16.8,  +12.4,+1000.48,51
02/08/2009,00:59:34,   0.0,  1.6,  234,+11.5,  88.8,    0.5,  +15.8,  +16.8,  +12.4,+1000.51,54
02/08/2009,00:59:54,   0.0,  1.9,  245,+11.4,  88.7,    0.3,  +15.7,  +16.8,  +12.4,+1000.49,5D
02/08/2009,01:00:14,   0.0,  0.8,  233,+11.4,  88.7,    0.3,  +15.8,  +16.8,  +12.4,+1000.48,47
02/08/2009,01:00:34,   0.0,  3.1,  221,+11.4,  88.8,    0.3,  +15.9,  +16.7,  +12.4,+1000.48,43
02/08/2009,01:00:54,   0.0,  2.5,  255,+11.4,  89.0,    0.4,  +15.7,  +16.8,  +12.4,+1000.48,48
02/08/2009,01:01:14,   0.0,  1.4,  226,+11.4,  89.0,    0.3,  +15.7,  +16.8,  +12.4,+1000.51,3A
02/08/2009,01:01:34,   0.0,  1.0,  199,+11.4,  89.0,    0.4,  +15.6,  +16.8,  +12.3,+1000.51,40
02/08/2009,01:01:54,   0.0,  2.2,  201,+11.4,  89.1,    0.3,  +15.8,  +16.7,  +12.4,+1000.51,37
02/08/2009,01:02:14,   0.0,  1.9,  241,+11.4,  89.1,    0.3,  +15.9,  +16.7,  +12.4,+1000.51,3F
02/08/2009,01:02:34,   0.0,  2.0,  222,+11.4,  89.0,    0.3,  +15.7,  +16.8,  +12.4,+1000.51,36
02/08/2009,01:02:54,   0.0,  2.1,  234,+11.4,  89.1,    0.3,  +15.7,  +16.8,  +12.3,+1000.54,3F
02/08/2009,01:03:14,   0.0,  1.2,  229,+11.4,  89.0,    0.4,  +15.8,  +16.7,  +12.4,+1000.53,40
02/08/2009,01:03:34,   0.0,  2.3,  229,+11.4,  89.1,    0.3,  +15.8,  +16.7,  +12.3,+1000.52,42
02/08/2009,01:03:54,   0.0,  2.2,  226,+11.4,  89.1,    0.4,  +15.9,  +16.7,  +12.3,+1000.52,42
02/08/2009,01:04:14,   0.0,  2.1,  218,+11.4,  89.2,    0.4,  +15.9,  +16.6,  +12.3,+1000.56,43
02/08/2009,01:04:34,   0.0,  2.2,  250,+11.4,  89.2,    0.4,  +15.8,  +16.7,  +12.3,+1000.55,41
02/08/2009,01:04:54,   0.0,  1.6,  215,+11.4,  89.3,    0.3,  +15.8,  +16.8,  +12.3,+1000.57,4A
02/08/2009,01:05:14,   0.0,  1.6,  251,+11.3,  89.2,    0.4,  +15.8,  +16.7,  +12.4,+1000.58,47
02/08/2009,01:05:34,   0.0,  1.4,  215,+11.3,  89.2,    0.4,  +15.8,  +16.7,  +12.3,+1000.56,44
02/08/2009,01:05:54,   0.0,  1.7,  248,+11.3,  89.2,    0.4,  +15.7,  +16.8,  +12.3,+1000.59,52
02/08/2009,01:06:14,   0.0,  1.7,  248,+11.3,  89.2,    0.5,  +15.8,  +16.8,  +12.3,+1000.57,4F
02/08/2009,01:06:34,   0.0,  2.7,  242,+11.3,  89.3,    0.4,  +15.7,  +16.8,  +12.3,+1000.59,4D
02/08/2009,01:06:54,   0.0,  2.0,  224,+11.3,  89.5,    0.4,  +15.8,  +16.8,  +12.3,+1000.56,48
02/08/2009,01:07:14,   0.0,  1.8,  192,+11.3,  89.5,    0.5,  +15.8,  +16.7,  +12.2,+1000.58,51
02/08/2009,01:07:34,   0.0,  2.7,  245,+11.3,  89.5,    0.4,  +15.9,  +16.7,  +12.3,+1000.60,4C
02/08/2009,01:07:54,   0.0,  2.6,  220,+11.3,  89.5,    0.5,  +15.8,  +16.7,  +12.2,+1000.62,47
02/08/2009,01:08:14,   0.0,  3.1,  232,+11.3,  89.6,    0.4,  +15.8,  +16.7,  +12.2,+1000.59,49
02/08/2009,01:08:34,   0.0,  1.9,  238,+11.3,  89.6,    0.3,  +15.7,  +16.7,  +12.2,+1000.61,4E
02/08/2009,01:08:54,   0.0,  1.8,  244,+11.3,  89.6,    0.3,  +15.8,  +16.7,  +12.2,+1000.63,4F
02/08/2009,01:09:14,   0.0,  1.6,  230,+11.3,  89.7,    0.3,  +15.8,  +16.7,  +12.2,+1000.64,47
02/08/2009,01:09:34,   0.0,  2.5,  243,+11.3,  89.6,    0.2,  +15.9,  +16.7,  +12.2,+1000.62,4A
02/08/2009,01:09:54,   0.0,  1.7,  228,+11.3,  89.7,    0.3,  +15.7,  +16.8,  +12.2,+1000.65,54
02/08/2009,01:10:14,   0.0,  2.5,  236,+11.3,  89.7,    0.4,  +15.7,  +16.8,  +12.1,+1000.65,46
02/08/2009,01:10:34,   0.0,  2.2,  224,+11.3,  89.8,    0.3,  +15.8,  +16.7,  +12.1,+1000.65,42
02/08/2009,01:10:54,   0.0,  1.1,  231,+11.3,  89.8,    0.3,  +15.8,  +16.7,  +12.1,+1000.66,41
02/08/2009,01:11:14,   0.0,  2.8,  233,+11.3,  89.8,    0.3,  +15.8,  +16.7,  +12.1,+1000.69,4B
02/08/2009,01:11:34,   0.0,  4.0,  240,+11.3,  89.8,    0.3,  +15.8,  +16.7,  +12.1,+1000.67,43
02/08/2009,01:11:54,   0.0,  2.9,  199,+11.3,  89.8,    0.4,  +15.8,  +16.7,  +12.1,+1000.67,5A
02/08/2009,01:12:14,   0.0,  2.2,  210,+11.3,  89.9,    0.3,  +15.8,  +16.7,  +12.1,+1000.69,42
02/08/2009,01:12:34,   0.0,  2.3,  248,+11.3,  89.8,    0.5,  +15.8,  +16.7,  +12.1,+1000.69,51
02/08/2009,01:12:54,   0.0,  2.6,  228,+11.3,  89.9,    0.3,  +15.9,  +16.7,  +12.1,+1000.67,52
02/08/2009,01:13:14,   0.0,  3.1,  241,+11.3,  89.9,    0.3,  +15.8,  +16.7,  +12.1,+1000.71,40
02/08/2009,01:13:34,   0.0,  2.4,  198,+11.3,  89.8,    0.4,  +15.8,  +16.7,  +12.1,+1000.71,4F
02/08/2009,01:13:54,   0.0,  1.9,  206,+11.3,  89.9,    0.3,  +15.9,  +16.7,  +12.1,+1000.70,4B
02/08/2009,01:14:14,   0.0,  2.6,  218,+11.3,  89.9,    0.2,  +15.9,  +16.7,  +12.2,+1000.71,4A
02/08/2009,01:14:34,   0.0,  1.9,  219,+11.3,  89.9,    0.3,  +15.7,  +16.7,  +12.2,+1000.69,55
02/08/2009,01:14:54,   0.0,  2.1,  224,+11.3,  89.9,    0.3,  +15.7,  +16.8,  +12.1,+1000.72,46
02/08/2009,01:15:14,   0.0,  2.3,  241,+11.3,  89.9,    0.4,  +15.9,  +16.7,  +12.2,+1000.73,48
02/08/2009,01:15:34,   0.0,  3.8,  224,+11.3,  89.9,    0.3,  +15.8,  +16.7,  +12.2,+1000.73,4F
02/08/2009,01:15:54,   0.0,  3.1,  235,+11.3,  89.9,    0.3,  +15.9,  +16.7,  +12.2,+1000.76,50
02/08/2009,01:16:14,   0.0,  3.6,  217,+11.3,  89.9,    0.3,  +15.9,  +16.7,  +12.2,+1000.75,51
02/08/2009,01:16:34,   0.0,  2.8,  223,+11.3,  89.9,    0.4,  +15.9,  +16.7,  +12.2,+1000.74,51
02/08/2009,01:16:54,   0.0,  2.4,  225,+11.3,  89.9,    0.4,  +15.8,  +16.7,  +12.3,+1000.73,50
02/08/2009,01:17:14,   0.0,  2.7,  256,+11.3,  89.9,    0.5,  +15.9,  +16.7,  +12.3,+1000.74,57
02/08/2009,01:17:34,   0.0,  2.4,  227,+11.3,  89.9,    0.4,  +15.8,  +16.7,  +12.3,+1000.76,54
02/08/2009,01:17:54,   0.0,  3.1,  226,+11.3,  89.9,    0.3,  +15.9,  +16.7,  +12.3,+1000.74,51
02/08/2009,01:18:14,   0.0,  2.8,  235,+11.3,  89.8,    0.4,  +15.8,  +16.7,  +12.3,+1000.77,56
02/08/2009,01:18:34,   0.0,  3.5,  224,+11.4,  89.8,    0.3,  +15.7,  +16.8,  +12.2,+1000.75,51
02/08/2009,01:18:54,   0.0,  2.7,  249,+11.3,  89.8,    0.3,  +15.8,  +16.7,  +12.2,+1000.79,5E
02/08/2009,01:19:14,   0.0,  2.7,  247,+11.4,  89.8,    0.4,  +15.8,  +16.7,  +12.2,+1000.75,57
02/08/2009,01:19:34,   0.0,  2.3,  231,+11.4,  89.8,    0.3,  +15.8,  +16.7,  +12.2,+1000.76,4E
02/08/2009,01:19:54,   0.0,  2.0,  226,+11.3,  89.8,    0.4,  +15.7,  +16.8,  +12.3,+1000.77,53
02/08/2009,01:20:14,   0.0,  2.2,  253,+11.4,  89.7,    0.4,  +15.7,  +16.8,  +12.3,+1000.78,4A
02/08/2009,01:20:34,   0.0,  1.4,  244,+11.3,  89.8,    0.4,  +15.7,  +16.8,  +12.3,+1000.74,49
02/08/2009,01:20:54,   0.0,  2.8,  241,+11.4,  89.7,    0.4,  +15.8,  +16.7,  +12.3,+1000.74,4D
02/08/2009,01:21:14,   0.0,  2.9,  244,+11.4,  89.7,    0.4,  +15.7,  +16.8,  +12.4,+1000.74,4F
02/08/2009,01:21:34,   0.0,  2.6,  243,+11.4,  89.7,    0.5,  +15.7,  +16.8,  +12.4,+1000.76,50
02/08/2009,01:21:54,   0.0,  2.8,  240,+11.4,  89.6,    0.5,  +15.8,  +16.7,  +12.3,+1000.73,4C
02/08/2009,01:22:14,   0.0,  2.9,  240,+11.4,  89.6,    0.4,  +15.8,  +16.8,  +12.3,+1000.75,4C